"startDT [UTC]","vpos","CH4 [ppm]","stdev(CH4) [ppm]","CO2 [ppm]","stdev(CO2) [ppm]","H2O [ppm]","stdev(H2O)","p_LGR [torr]","T_LGR [C]","mt1_LGR [us]","mt2_LGR [us]","T_ECpre [C]","T_EC1 [C]","T_EC2 [C]","p_inlet [hPa]","p_in [hPa]","p_out [hPa]","T_inlet [C]","RH_inlet [%]","dwpt_inlet [C]","T_vent [C]","RH_vent [%]","dwpt_vent [C]","flow_vent [l min-1]","flow_inlet [l min-1]","dwpt_sample [C]","T_room [C]"
2012-01-30 00:00:00,0.0,1.9256,0.0010,402.66,0.21,191.3,29.8,138.11,28.91,24.61,36.33,0.04,-272.74,-272.74,-54,560,-945,24.8,3.4,-21.8,24.8,3.5,-21.4,5.73,2.34,-24.6,27.7
2012-01-30 00:01:00,0.0,1.9257,0.0009,402.64,0.20,189.8,32.6,138.11,28.92,24.61,36.33,0.04,-272.74,-272.74,-54,560,-945,24.8,3.4,-21.8,24.8,3.6,-21.4,5.73,2.36,-24.6,27.8
2012-01-30 00:02:00,0.0,1.9254,0.0008,402.62,0.20,182.4,29.6,138.11,28.92,24.61,36.34,0.04,-272.73,-272.74,-55,560,-945,24.8,3.4,-21.8,24.7,3.6,-21.4,5.73,2.41,-24.6,27.7
2012-01-30 00:03:00,0.0,1.9256,0.0009,402.58,0.23,187.8,30.8,138.11,28.93,24.61,36.34,0.04,-272.74,-272.74,-55,560,-945,24.8,3.4,-21.8,24.8,3.6,-21.4,5.73,2.45,-24.6,27.7
2012-01-30 00:04:00,0.0,1.9250,0.0010,402.59,0.22,191.8,32.6,138.11,28.93,24.61,36.34,0.04,-272.74,-272.74,-55,560,-945,24.8,3.4,-21.7,24.8,3.6,-21.4,5.73,2.45,-24.6,27.8
2012-01-30 00:05:00,0.0,1.9257,0.0010,402.50,0.22,179.1,33.1,138.11,28.93,24.61,36.34,0.04,-272.74,-272.74,-55,560,-945,24.8,3.4,-21.8,24.8,3.6,-21.3,5.73,2.44,-24.6,27.8
2012-01-30 00:06:00,0.0,1.9260,0.0009,402.64,0.19,184.4,34.7,138.11,28.94,24.61,36.33,0.04,-272.74,-272.74,-55,560,-945,24.8,3.4,-21.7,24.8,3.5,-21.4,5.73,2.39,-24.6,27.8
2012-01-30 00:07:00,0.0,1.9258,0.0008,402.64,0.19,189.7,26.5,138.11,28.94,24.61,36.33,0.04,-272.74,-272.74,-55,561,-945,24.8,3.4,-21.8,24.8,3.5,-21.4,5.73,2.36,-24.6,27.9
2012-01-30 00:08:00,0.0,1.9260,0.0010,402.68,0.22,182.5,25.9,138.11,28.95,24.61,36.33,0.04,-272.74,-272.74,-55,560,-946,24.8,3.4,-21.8,24.8,3.5,-21.4,5.73,2.34,-24.6,27.9
2012-01-30 00:09:00,0.0,1.9262,0.0008,402.62,0.21,178.1,27.9,138.11,28.95,24.61,36.34,0.04,-272.74,-272.74,-55,560,-945,24.8,3.4,-21.8,24.8,3.5,-21.4,5.73,2.36,-24.5,27.9
2012-01-30 00:10:00,0.0,1.9261,0.0009,402.66,0.25,181.4,29.9,138.11,28.96,24.61,36.34,0.04,-272.74,-272.74,-55,561,-946,24.8,3.4,-21.8,24.8,3.5,-21.5,5.73,2.41,-24.5,27.9
2012-01-30 00:11:00,0.0,1.9268,0.0009,402.69,0.21,178.3,31.4,138.11,28.96,24.61,36.34,0.04,-272.74,-272.74,-55,561,-945,24.8,3.4,-21.9,24.8,3.5,-21.5,5.73,2.45,-24.5,27.9
2012-01-30 00:12:00,0.0,1.9267,0.0010,402.67,0.20,180.9,35.8,138.11,28.96,24.61,36.34,0.04,-272.73,-272.74,-55,561,-945,24.8,3.4,-21.9,24.8,3.5,-21.5,5.73,2.46,-24.6,27.9
2012-01-30 00:13:00,0.0,1.9264,0.0008,402.60,0.24,189.2,29.4,138.11,28.97,24.61,36.34,0.04,-272.74,-272.74,-55,561,-945,24.9,3.4,-21.9,24.8,3.5,-21.6,5.73,2.44,-24.5,27.8
2012-01-30 00:14:00,0.0,1.9266,0.0009,402.67,0.25,184.6,32.1,138.11,28.97,24.61,36.34,0.04,-272.74,-272.74,-55,561,-945,24.8,3.4,-22.0,24.8,3.4,-21.7,5.73,2.40,-24.5,27.8
2012-01-30 00:15:00,0.0,1.9266,0.0009,402.74,0.24,193.7,33.3,138.11,28.97,24.61,36.34,0.04,-272.74,-272.74,-55,561,-945,24.8,3.3,-22.1,24.8,3.4,-21.7,5.73,2.35,-24.5,27.8
2012-01-30 00:16:00,0.0,1.9261,0.0009,402.67,0.20,184.8,30.8,138.11,28.98,24.61,36.34,0.04,-272.74,-272.74,-55,561,-945,24.9,3.3,-22.1,24.8,3.4,-21.7,5.73,2.34,-24.5,27.7
2012-01-30 00:17:00,0.0,1.9260,0.0010,402.69,0.24,189.1,35.4,138.11,28.98,24.61,36.34,0.04,-272.74,-272.74,-55,561,-945,24.9,3.3,-22.1,24.8,3.4,-21.8,5.73,2.37,-24.5,27.6
2012-01-30 00:18:00,0.0,1.9263,0.0009,402.66,0.30,185.6,32.2,138.11,28.98,24.61,36.34,0.04,-272.74,-272.74,-55,560,-945,24.9,3.4,-22.0,24.8,3.4,-21.7,5.73,2.43,-24.5,27.7
2012-01-30 00:19:00,0.0,1.9258,0.0010,402.60,0.24,190.5,31.1,138.11,28.99,24.61,36.34,0.04,-272.74,-272.73,-55,560,-945,24.8,3.3,-22.1,24.8,3.4,-21.7,5.73,2.46,-24.5,27.7
2012-01-30 00:20:00,0.0,1.9251,0.0011,402.60,0.25,189.3,34.7,138.11,28.99,24.61,36.34,0.04,-272.74,-272.74,-55,561,-945,24.9,3.3,-22.1,24.8,3.4,-21.7,5.73,2.44,-24.5,27.7
2012-01-30 00:21:00,0.0,1.9248,0.0009,402.61,0.21,189.8,32.8,138.11,28.99,24.61,36.33,0.04,-272.74,-272.73,-55,561,-945,24.9,3.4,-21.9,24.8,3.5,-21.5,5.73,2.41,-24.5,27.8
2012-01-30 00:22:00,0.0,1.9256,0.0009,402.62,0.26,176.8,28.6,138.11,28.99,24.61,36.34,0.04,-272.74,-272.74,-55,560,-945,24.9,3.4,-21.8,24.8,3.5,-21.6,5.73,2.36,-24.5,27.7
2012-01-30 00:23:00,0.0,1.9247,0.0008,402.47,0.24,177.8,32.4,138.11,29.00,24.61,36.34,0.04,-272.74,-272.74,-55,561,-945,24.9,3.4,-21.8,24.8,3.5,-21.5,5.73,2.33,-24.5,27.8
2012-01-30 00:24:00,0.0,1.9256,0.0010,402.47,0.25,179.6,34.4,138.11,29.00,24.61,36.35,0.04,-272.74,-272.74,-55,561,-945,24.9,3.4,-21.8,24.8,3.5,-21.5,5.73,2.35,-24.5,27.8
2012-01-30 00:25:00,0.0,1.9251,0.0008,402.58,0.22,189.6,31.9,138.11,29.01,24.61,36.34,0.04,-272.73,-272.74,-55,561,-945,24.9,3.4,-21.8,24.8,3.5,-21.5,5.73,2.40,-24.5,27.8
2012-01-30 00:26:00,0.0,1.9246,0.0009,402.54,0.23,180.6,30.2,138.11,29.01,24.61,36.34,0.04,-272.74,-272.74,-55,561,-945,24.9,3.4,-21.8,24.8,3.5,-21.4,5.73,2.45,-24.6,27.8
2012-01-30 00:27:00,0.0,1.9257,0.0010,402.69,0.23,187.7,32.0,138.11,29.01,24.61,36.33,0.04,-272.74,-272.74,-55,561,-945,24.9,3.4,-21.9,24.8,3.5,-21.5,5.73,2.45,-24.5,27.8
2012-01-30 00:28:00,0.0,1.9256,0.0008,402.60,0.20,182.5,29.8,138.11,29.02,24.61,36.34,0.04,-272.74,-272.74,-55,560,-945,24.9,3.4,-21.9,24.8,3.5,-21.6,5.73,2.43,-24.5,27.7
2012-01-30 00:29:00,0.0,1.9250,0.0008,402.65,0.22,181.1,32.9,138.11,29.02,24.61,36.33,0.04,-272.74,-272.74,-55,560,-945,24.9,3.4,-21.9,24.8,3.5,-21.6,5.73,2.39,-24.6,27.8
2012-01-30 00:30:00,0.0,1.9247,0.0010,402.66,0.20,186.3,35.1,138.11,29.02,24.62,36.34,0.04,-272.74,-272.74,-55,561,-944,24.9,3.4,-21.9,24.8,3.5,-21.6,5.73,2.35,-24.6,27.7
2012-01-30 00:31:00,0.0,1.9257,0.0009,402.68,0.22,179.8,36.2,138.11,29.02,24.61,36.33,0.04,-272.74,-272.74,-55,561,-945,24.9,3.3,-22.0,24.8,3.5,-21.6,5.73,2.34,-24.6,27.7
2012-01-30 00:32:00,0.0,1.9255,0.0011,402.66,0.27,184.8,35.4,138.11,29.02,24.61,36.33,0.04,-272.74,-272.74,-55,561,-944,24.8,3.4,-22.0,24.8,3.5,-21.7,5.73,2.36,-24.6,27.8
2012-01-30 00:33:00,0.0,1.9252,0.0009,402.54,0.23,185.8,28.6,138.11,29.02,24.61,36.34,0.04,-272.74,-272.74,-55,560,-944,24.9,3.3,-22.0,24.8,3.4,-21.7,5.73,2.41,-24.6,27.9
2012-01-30 00:34:00,0.0,1.9259,0.0009,402.63,0.22,182.9,34.0,138.11,29.03,24.61,36.34,0.04,-272.74,-272.74,-55,560,-945,24.9,3.3,-22.1,24.8,3.4,-21.8,5.73,2.44,-24.6,27.8
2012-01-30 00:35:00,0.0,1.9258,0.0010,402.60,0.20,179.7,33.3,138.11,29.03,24.61,36.34,0.04,-272.74,-272.74,-55,560,-944,24.9,3.3,-22.2,24.8,3.4,-21.8,5.73,2.45,-24.6,27.8
2012-01-30 00:36:00,0.0,1.9255,0.0009,402.59,0.21,179.4,31.7,138.11,29.04,24.61,36.34,0.04,-272.73,-272.74,-55,560,-945,24.9,3.3,-22.1,24.8,3.4,-21.8,5.73,2.43,-24.6,27.7
2012-01-30 00:37:00,0.0,1.9250,0.0009,402.54,0.20,180.0,36.0,138.11,29.04,24.61,36.34,0.04,-272.74,-272.74,-55,560,-945,24.9,3.3,-22.1,24.8,3.4,-21.7,5.73,2.39,-24.6,27.7
2012-01-30 00:38:00,0.0,1.9255,0.0009,402.60,0.20,177.7,32.9,138.11,29.04,24.61,36.34,0.04,-272.74,-272.74,-55,560,-944,24.9,3.3,-22.0,24.8,3.4,-21.8,5.73,2.36,-24.6,27.7
2012-01-30 00:39:00,0.0,1.9257,0.0008,402.54,0.20,179.5,36.3,138.11,29.04,24.61,36.35,0.04,-272.73,-272.74,-55,561,-944,24.9,3.3,-22.1,24.8,3.4,-21.8,5.73,2.33,-24.6,27.7
2012-01-30 00:40:00,0.0,1.9257,0.0009,402.70,0.18,178.4,32.5,138.11,29.04,24.61,36.33,0.04,-272.74,-272.74,-55,560,-944,24.9,3.3,-22.2,24.8,3.4,-21.9,5.73,2.35,-24.6,27.6
2012-01-30 00:41:00,0.0,1.9259,0.0008,402.65,0.21,178.2,30.6,138.11,29.04,24.61,36.33,0.04,-272.74,-272.74,-55,560,-944,24.8,3.3,-22.3,24.8,3.4,-22.0,5.73,2.40,-24.6,27.7
2012-01-30 00:42:00,0.0,1.9265,0.0010,402.66,0.22,170.6,27.5,138.11,29.04,24.61,36.34,0.04,-272.74,-272.74,-55,560,-944,24.9,3.2,-22.4,24.8,3.3,-22.1,5.73,2.43,-24.6,27.7
2012-01-30 00:43:00,0.0,1.9261,0.0009,402.70,0.27,171.2,32.3,138.11,29.04,24.61,36.33,0.04,-272.74,-272.74,-55,560,-944,24.8,3.2,-22.5,24.8,3.3,-22.2,5.73,2.44,-24.6,27.7
2012-01-30 00:44:00,0.0,1.9264,0.0009,402.74,0.22,178.1,33.4,138.11,29.05,24.61,36.34,0.04,-272.74,-272.74,-55,560,-944,24.8,3.2,-22.7,24.8,3.3,-22.3,5.73,2.44,-24.6,27.7
2012-01-30 00:45:00,0.0,1.9261,0.0009,402.58,0.21,178.0,35.9,138.11,29.05,24.61,36.34,0.04,-272.74,-272.74,-55,560,-944,24.8,3.2,-22.7,24.8,3.3,-22.3,5.73,2.42,-24.6,27.8
2012-01-30 00:46:00,0.0,1.9257,0.0008,402.64,0.20,174.2,27.4,138.11,29.05,24.61,36.33,0.04,-272.74,-272.74,-55,560,-944,24.8,3.2,-22.6,24.8,3.3,-22.2,5.73,2.38,-24.6,27.7
2012-01-30 00:47:00,0.0,1.9262,0.0011,402.61,0.22,171.3,33.0,138.11,29.05,24.61,36.34,0.04,-272.74,-272.74,-55,560,-944,24.8,3.2,-22.7,24.8,3.3,-22.3,5.73,2.35,-24.7,27.7
2012-01-30 00:48:00,0.0,1.9264,0.0010,402.58,0.24,170.7,40.2,138.11,29.05,24.61,36.34,0.04,-272.74,-272.74,-56,560,-944,24.8,3.2,-22.6,24.7,3.3,-22.4,5.73,2.34,-24.7,27.6
2012-01-30 00:49:00,0.0,1.9264,0.0008,402.60,0.19,169.9,35.3,138.11,29.05,24.61,36.34,0.04,-272.74,-272.74,-56,560,-944,24.8,3.2,-22.7,24.7,3.3,-22.3,5.73,2.36,-24.7,27.5
2012-01-30 00:50:00,0.0,1.9259,0.0009,402.64,0.21,166.0,30.5,138.11,29.05,24.61,36.34,0.04,-272.74,-272.74,-55,560,-944,24.8,3.2,-22.7,24.7,3.3,-22.3,5.73,2.38,-24.7,27.4
2012-01-30 00:51:00,0.0,1.9263,0.0008,402.68,0.25,164.3,26.7,138.11,29.05,24.61,36.34,0.04,-272.74,-272.74,-56,560,-944,24.8,3.2,-22.7,24.7,3.3,-22.4,5.73,2.40,-24.7,27.5
2012-01-30 00:52:00,0.0,1.9263,0.0008,402.61,0.19,170.9,32.5,138.11,29.05,24.61,36.34,0.04,-272.73,-272.74,-56,560,-944,24.8,3.2,-22.7,24.7,3.2,-22.4,5.73,2.42,-24.7,27.5
2012-01-30 00:53:00,0.0,1.9266,0.0010,402.72,0.19,173.9,33.0,138.11,29.05,24.61,36.33,0.04,-272.74,-272.74,-55,560,-944,24.7,3.2,-22.7,24.7,3.3,-22.3,5.73,2.44,-24.7,27.5
2012-01-30 00:54:00,0.0,1.9256,0.0009,402.61,0.22,170.8,30.8,138.11,29.05,24.62,36.34,0.04,-272.74,-272.74,-55,560,-944,24.7,3.2,-22.7,24.7,3.3,-22.4,5.73,2.44,-24.7,27.5
2012-01-30 00:55:00,0.0,1.9262,0.0009,402.62,0.24,174.9,32.3,138.11,29.05,24.61,36.34,0.04,-272.74,-272.74,-56,560,-944,24.7,3.2,-22.8,24.7,3.3,-22.4,5.73,2.43,-24.7,27.5
2012-01-30 00:56:00,0.0,1.9258,0.0009,402.55,0.19,171.2,32.5,138.11,29.05,24.61,36.34,0.04,-272.73,-272.74,-56,560,-944,24.7,3.2,-22.7,24.7,3.3,-22.3,5.73,2.40,-24.7,27.5
2012-01-30 00:57:00,0.0,1.9259,0.0010,402.66,0.21,162.9,31.3,138.11,29.05,24.61,36.33,0.04,-272.74,-272.74,-55,559,-944,24.7,3.2,-22.7,24.7,3.3,-22.4,5.73,2.38,-24.7,27.4
2012-01-30 00:58:00,0.0,1.9255,0.0008,402.63,0.21,169.4,31.6,138.11,29.04,24.61,36.33,0.04,-272.74,-272.74,-55,559,-944,24.7,3.2,-22.6,24.7,3.3,-22.3,5.73,2.36,-24.7,27.4
2012-01-30 00:59:00,0.0,1.9259,0.0009,402.61,0.20,166.8,32.5,138.11,29.04,24.61,36.34,0.04,-272.73,-272.74,-55,559,-944,24.7,3.2,-22.7,24.7,3.3,-22.4,5.73,2.35,-24.8,27.5
2012-01-30 01:00:00,0.0,1.9259,0.0007,402.65,0.21,166.3,31.6,138.11,29.04,24.61,36.34,0.04,-272.74,-272.74,-55,559,-944,24.7,3.2,-22.8,24.7,3.3,-22.4,5.73,2.36,-24.8,27.5
2012-01-30 01:01:00,0.0,1.9261,0.0008,402.68,0.22,173.3,37.5,138.11,29.04,24.61,36.34,0.04,-272.74,-272.74,-55,559,-944,24.7,3.1,-22.9,24.7,3.2,-22.5,5.73,2.39,-24.7,27.5
2012-01-30 01:02:00,0.0,1.9260,0.0009,402.76,0.22,172.2,35.2,138.11,29.04,24.61,36.33,0.04,-272.74,-272.74,-56,559,-944,24.7,3.1,-22.9,24.7,3.2,-22.6,5.73,2.40,-24.8,27.5
2012-01-30 01:03:00,0.0,1.9264,0.0011,402.63,0.24,171.8,30.4,138.11,29.04,24.61,36.34,0.04,-272.74,-272.74,-55,559,-943,24.7,3.1,-23.0,24.7,3.2,-22.5,5.73,2.42,-24.8,27.4
2012-01-30 01:04:00,0.0,1.9265,0.0008,402.70,0.25,168.2,34.2,138.11,29.04,24.61,36.33,0.04,-272.73,-272.74,-55,559,-943,24.7,3.1,-22.9,24.6,3.2,-22.6,5.73,2.43,-24.8,27.4
2012-01-30 01:05:00,0.0,1.9261,0.0009,402.70,0.20,168.2,37.2,138.12,29.04,24.61,36.34,0.04,-272.73,-272.74,-55,559,-943,24.7,3.1,-23.0,24.6,3.2,-22.6,5.73,2.44,-24.8,27.5
2012-01-30 01:06:00,0.0,1.9260,0.0008,402.67,0.20,167.8,31.9,138.11,29.04,24.61,36.34,0.04,-272.74,-272.73,-55,559,-943,24.7,3.1,-23.0,24.6,3.2,-22.6,5.73,2.43,-24.8,27.4
2012-01-30 01:07:00,0.0,1.9260,0.0008,402.65,0.18,161.7,36.8,138.11,29.04,24.61,36.34,0.04,-272.74,-272.74,-56,559,-943,24.7,3.1,-22.9,24.6,3.2,-22.6,5.73,2.40,-24.8,27.4
2012-01-30 01:08:00,0.0,1.9261,0.0010,402.74,0.23,161.2,33.1,138.11,29.04,24.61,36.33,0.04,-272.74,-272.74,-55,559,-943,24.7,3.1,-22.9,24.6,3.2,-22.6,5.73,2.38,-24.8,27.4
2012-01-30 01:09:00,0.0,1.9257,0.0007,402.57,0.20,165.1,38.1,138.12,29.04,24.61,36.34,0.04,-272.74,-272.74,-55,559,-943,24.7,3.1,-22.9,24.6,3.2,-22.6,5.73,2.36,-24.8,27.4
2012-01-30 01:10:00,0.0,1.9257,0.0007,402.62,0.23,164.8,34.1,138.12,29.03,24.61,36.34,0.04,-272.74,-272.74,-55,559,-943,24.6,3.1,-22.9,24.6,3.2,-22.5,5.73,2.35,-24.8,27.4
2012-01-30 01:11:00,0.0,1.9261,0.0010,402.56,0.21,169.3,34.6,138.12,29.03,24.61,36.34,0.04,-272.74,-272.74,-55,559,-943,24.6,3.2,-22.8,24.6,3.2,-22.5,5.73,2.36,-24.8,27.4
2012-01-30 01:12:00,0.0,1.9254,0.0008,402.55,0.20,164.4,29.0,138.12,29.03,24.61,36.34,0.04,-272.74,-272.73,-55,559,-943,24.6,3.2,-22.8,24.6,3.3,-22.5,5.73,2.37,-24.8,27.3
2012-01-30 01:13:00,0.0,1.9254,0.0011,402.65,0.18,160.4,33.4,138.12,29.03,24.61,36.33,0.04,-272.74,-272.74,-55,559,-943,24.6,3.1,-22.9,24.6,3.2,-22.5,5.73,2.38,-24.8,27.3
2012-01-30 01:14:00,0.0,1.9256,0.0009,402.62,0.24,150.9,31.4,138.12,29.02,24.61,36.33,0.04,-272.74,-272.74,-56,558,-943,24.6,3.1,-22.9,24.6,3.2,-22.6,5.73,2.40,-24.9,27.3
2012-01-30 01:15:00,0.0,1.9257,0.0008,402.60,0.30,161.0,37.0,138.12,29.02,24.61,36.33,0.04,-272.74,-272.74,-56,558,-943,24.6,3.1,-22.9,24.6,3.2,-22.7,5.73,2.42,-24.9,27.3
2012-01-30 01:16:00,0.0,1.9254,0.0008,402.67,0.22,163.6,30.6,138.12,29.02,24.61,36.33,0.04,-272.73,-272.74,-56,558,-943,24.6,3.1,-22.9,24.6,3.2,-22.5,5.73,2.42,-24.9,27.3
2012-01-30 01:17:00,0.0,1.9260,0.0011,402.70,0.24,164.3,35.6,138.12,29.02,24.61,36.33,0.04,-272.74,-272.74,-55,558,-943,24.6,3.1,-23.0,24.5,3.2,-22.6,5.73,2.42,-24.9,27.3
2012-01-30 01:18:00,0.0,1.9257,0.0008,402.71,0.18,161.4,37.1,138.12,29.02,24.61,36.33,0.04,-272.74,-272.74,-55,558,-943,24.6,3.1,-23.0,24.5,3.2,-22.7,5.73,2.42,-24.9,27.3
2012-01-30 01:19:00,0.0,1.9258,0.0009,402.72,0.23,158.1,32.0,138.12,29.01,24.61,36.33,0.04,-272.73,-272.74,-56,558,-943,24.5,3.1,-23.1,24.5,3.2,-22.7,5.73,2.42,-24.9,27.3
2012-01-30 01:20:00,0.0,1.9261,0.0010,402.68,0.21,153.9,34.2,138.12,29.01,24.61,36.33,0.04,-272.74,-272.74,-56,558,-942,24.5,3.1,-23.1,24.5,3.2,-22.8,5.73,2.41,-24.9,27.3
2012-01-30 01:21:00,0.0,1.9258,0.0008,402.71,0.22,160.4,32.8,138.12,29.01,24.61,36.33,0.04,-272.74,-272.74,-55,558,-942,24.5,3.1,-23.2,24.5,3.2,-22.9,5.73,2.40,-25.0,27.3
2012-01-30 01:22:00,0.0,1.9258,0.0010,402.62,0.20,153.5,31.6,138.12,29.00,24.61,36.33,0.04,-272.73,-272.74,-56,558,-942,24.5,3.1,-23.3,24.5,3.2,-22.9,5.73,2.39,-25.0,27.3
2012-01-30 01:23:00,0.0,1.9257,0.0009,402.71,0.22,152.9,29.6,138.12,29.00,24.61,36.33,0.04,-272.74,-272.74,-56,558,-942,24.5,3.1,-23.3,24.5,3.2,-22.9,5.73,2.38,-25.0,27.2
2012-01-30 01:24:00,0.0,1.9253,0.0009,402.67,0.23,160.5,35.7,138.12,29.00,24.61,36.33,0.04,-272.74,-272.74,-56,558,-942,24.5,3.1,-23.3,24.5,3.2,-22.9,5.73,2.38,-25.0,27.2
2012-01-30 01:25:00,0.0,1.9256,0.0009,402.64,0.22,157.9,31.1,138.12,28.99,24.61,36.34,0.04,-272.74,-272.74,-56,558,-942,24.5,3.0,-23.3,24.4,3.2,-22.9,5.73,2.37,-25.0,27.2
2012-01-30 01:26:00,0.0,1.9255,0.0009,402.71,0.23,154.5,33.3,138.12,28.99,24.61,36.33,0.04,-272.74,-272.74,-56,557,-942,24.5,3.1,-23.3,24.4,3.2,-22.9,5.73,2.37,-25.0,27.2
2012-01-30 01:27:00,0.0,1.9253,0.0011,402.62,0.22,151.6,32.8,138.12,28.98,24.61,36.34,0.04,-272.74,-272.74,-56,558,-942,24.4,3.1,-23.3,24.4,3.1,-23.0,5.73,2.37,-25.1,27.1
2012-01-30 01:28:00,0.0,1.9253,0.0009,402.61,0.24,149.4,32.4,138.12,28.98,24.61,36.33,0.04,-272.74,-272.74,-56,557,-942,24.4,3.0,-23.3,24.4,3.1,-23.0,5.73,2.37,-25.1,27.1
2012-01-30 01:29:00,0.0,1.9256,0.0010,402.60,0.24,143.0,34.5,138.12,28.98,24.61,36.34,0.04,-272.73,-272.74,-55,557,-942,24.4,3.0,-23.4,24.4,3.1,-23.0,5.73,2.38,-25.1,27.1
2012-01-30 01:30:00,0.0,1.9251,0.0009,402.70,0.19,151.9,29.4,138.12,28.97,24.61,36.33,0.04,-272.74,-272.74,-56,557,-942,24.4,3.1,-23.3,24.3,3.1,-23.1,5.73,2.38,-25.1,27.0
2012-01-30 01:31:00,0.0,1.9253,0.0011,402.70,0.24,148.4,32.6,138.12,28.96,24.61,36.33,0.04,-272.74,-272.74,-56,557,-942,24.4,3.0,-23.4,24.3,3.1,-23.1,5.73,2.38,-25.1,27.0
2012-01-30 01:32:00,0.0,1.9251,0.0009,402.58,0.21,140.9,31.5,138.12,28.96,24.61,36.33,0.04,-272.74,-272.74,-56,557,-942,24.4,3.1,-23.4,24.3,3.2,-23.0,5.73,2.39,-25.1,26.9
2012-01-30 01:33:00,0.0,1.9248,0.0009,402.59,0.26,143.6,36.1,138.12,28.95,24.61,36.33,0.04,-272.74,-272.74,-56,557,-942,24.4,3.1,-23.4,24.3,3.2,-23.0,5.73,2.39,-25.2,27.0
2012-01-30 01:34:00,0.0,1.9253,0.0009,402.63,0.26,139.0,34.4,138.12,28.95,24.61,36.33,0.04,-272.74,-272.74,-55,557,-942,24.3,3.1,-23.3,24.3,3.2,-23.0,5.73,2.39,-25.2,27.0
2012-01-30 01:35:00,0.0,1.9250,0.0007,402.58,0.22,141.7,37.4,138.12,28.94,24.61,36.33,0.04,-272.74,-272.74,-55,557,-942,24.3,3.1,-23.3,24.3,3.2,-23.0,5.73,2.39,-25.2,26.9
2012-01-30 01:36:00,0.0,1.9255,0.0009,402.54,0.22,132.7,39.7,138.12,28.94,24.61,36.33,0.04,-272.74,-272.74,-55,557,-942,24.3,3.1,-23.3,24.3,3.2,-23.0,5.73,2.39,-25.2,26.9
2012-01-30 01:37:00,0.0,1.9252,0.0010,402.57,0.23,131.8,30.4,138.13,28.93,24.61,36.33,0.04,-272.74,-272.74,-56,557,-942,24.3,3.1,-23.3,24.2,3.2,-23.1,5.73,2.39,-25.2,26.9
2012-01-30 01:38:00,0.0,1.9256,0.0009,402.64,0.22,133.6,28.0,138.13,28.92,24.61,36.32,0.04,-272.74,-272.74,-55,557,-942,24.3,3.1,-23.4,24.2,3.2,-23.1,5.73,2.39,-25.3,26.8
2012-01-30 01:39:00,0.0,1.9255,0.0010,402.54,0.24,135.2,35.1,138.13,28.92,24.61,36.33,0.04,-272.73,-272.74,-55,556,-942,24.3,3.1,-23.4,24.2,3.2,-23.1,5.73,2.39,-25.3,26.9
2012-01-30 01:40:00,0.0,1.9254,0.0008,402.45,0.24,132.7,36.0,138.13,28.91,24.61,36.34,0.04,-272.74,-272.74,-55,556,-942,24.2,3.1,-23.2,24.2,3.2,-22.9,5.73,2.39,-25.3,26.9
2012-01-30 01:41:00,0.0,1.9252,0.0011,402.53,0.21,132.3,31.6,138.13,28.91,24.61,36.33,0.04,-272.74,-272.74,-55,556,-942,24.2,3.1,-23.2,24.2,3.3,-22.7,5.73,2.39,-25.3,26.9
2012-01-30 01:42:00,0.0,1.9259,0.0009,402.48,0.23,139.7,30.9,138.13,28.90,24.61,36.34,0.04,-272.74,-272.74,-55,556,-942,24.2,3.1,-23.1,24.2,3.3,-22.8,5.73,2.40,-25.3,26.9
2012-01-30 01:43:00,0.0,1.9259,0.0010,402.53,0.23,131.8,32.4,138.13,28.89,24.61,36.33,0.04,-272.74,-272.74,-55,556,-942,24.2,3.1,-23.2,24.1,3.3,-22.8,5.73,2.39,-25.3,26.8
2012-01-30 01:44:00,0.0,1.9255,0.0010,402.58,0.24,132.4,35.0,138.13,28.89,24.61,36.33,0.04,-272.74,-272.74,-55,556,-942,24.2,3.1,-23.2,24.1,3.3,-22.8,5.73,2.40,-25.3,26.9
2012-01-30 01:45:00,0.0,1.9254,0.0009,402.65,0.23,127.7,33.4,138.13,28.88,24.61,36.32,0.04,-272.74,-272.74,-55,556,-942,24.1,3.1,-23.2,24.1,3.2,-22.8,5.73,2.40,-25.3,26.9
2012-01-30 01:46:00,0.0,1.9257,0.0008,402.50,0.21,128.4,31.6,138.13,28.87,24.61,36.33,0.04,-272.74,-272.74,-55,556,-942,24.1,3.1,-23.2,24.1,3.3,-22.8,5.73,2.40,-25.4,26.9
2012-01-30 01:47:00,0.0,1.9253,0.0009,402.52,0.23,128.8,29.8,138.13,28.86,24.61,36.33,0.04,-272.74,-272.74,-55,556,-942,24.1,3.2,-23.1,24.1,3.3,-22.8,5.73,2.40,-25.4,26.8
2012-01-30 01:48:00,0.0,1.9250,0.0010,402.59,0.19,130.4,41.7,138.13,28.86,24.61,36.32,0.04,-272.74,-272.74,-55,556,-942,24.1,3.2,-23.1,24.1,3.3,-22.8,5.73,2.40,-25.4,26.8
2012-01-30 01:49:00,0.0,1.9256,0.0010,402.54,0.26,126.4,26.5,138.13,28.85,24.61,36.33,0.04,-272.74,-272.74,-55,555,-942,24.1,3.2,-23.1,24.1,3.3,-22.7,5.73,2.39,-25.4,26.8
2012-01-30 01:50:00,0.0,1.9251,0.0009,402.52,0.26,121.1,36.5,138.13,28.84,24.61,36.32,0.04,-272.74,-272.74,-55,555,-942,24.1,3.2,-23.1,24.1,3.3,-22.8,5.73,2.39,-25.4,26.8
2012-01-30 01:51:00,0.0,1.9253,0.0009,402.64,0.24,129.5,33.5,138.13,28.84,24.61,36.32,0.04,-272.74,-272.74,-55,555,-942,24.1,3.2,-23.1,24.1,3.3,-22.8,5.73,2.41,-25.4,26.8
2012-01-30 01:52:00,0.0,1.9253,0.0010,402.46,0.26,126.8,36.7,138.13,28.83,24.61,36.33,0.04,-272.74,-272.74,-55,555,-942,24.1,3.2,-23.1,24.1,3.3,-22.7,5.73,2.41,-25.4,26.7
2012-01-30 01:53:00,0.0,1.9253,0.0009,402.36,0.26,118.3,35.2,138.13,28.82,24.61,36.33,0.04,-272.74,-272.74,-55,555,-942,24.0,3.2,-23.1,24.0,3.3,-22.8,5.73,2.41,-25.5,26.7
2012-01-30 01:54:00,0.0,1.9250,0.0011,402.45,0.25,126.3,31.2,138.13,28.81,24.61,36.33,0.04,-272.74,-272.74,-55,555,-941,24.0,3.2,-23.2,24.0,3.3,-22.8,5.73,2.41,-25.5,26.7
2012-01-30 01:55:00,0.0,1.9255,0.0008,402.52,0.24,130.6,36.3,138.13,28.81,24.61,36.33,0.04,-272.74,-272.74,-55,555,-941,24.0,3.1,-23.3,24.0,3.2,-22.9,5.73,2.41,-25.5,26.7
2012-01-30 01:56:00,0.0,1.9258,0.0008,402.50,0.22,114.1,36.4,138.13,28.80,24.61,36.33,0.04,-272.74,-272.74,-55,555,-941,24.0,3.1,-23.3,24.0,3.2,-23.0,5.73,2.41,-25.5,26.6
2012-01-30 01:57:00,0.0,1.9253,0.0011,402.50,0.20,126.2,35.8,138.13,28.79,24.61,36.33,0.04,-272.74,-272.73,-55,555,-941,24.0,3.1,-23.3,23.9,3.3,-22.9,5.73,2.40,-25.5,26.6
2012-01-30 01:58:00,0.0,1.9253,0.0009,402.43,0.21,121.5,30.6,138.13,28.78,24.61,36.34,0.04,-272.73,-272.74,-56,555,-941,23.9,3.1,-23.4,23.9,3.2,-23.0,5.73,2.41,-25.5,26.7
2012-01-30 01:59:00,0.0,1.9252,0.0011,402.51,0.24,114.7,37.3,138.13,28.78,24.61,36.33,0.04,-272.73,-272.74,-56,555,-941,23.9,3.2,-23.3,23.9,3.3,-22.9,5.73,2.42,-25.5,26.6
2012-01-30 02:00:00,0.0,1.9252,0.0011,402.44,0.23,112.0,35.9,138.13,28.77,24.61,36.33,0.04,-272.73,-272.74,-56,554,-941,23.9,3.2,-23.3,23.9,3.3,-22.9,5.73,2.41,-25.5,26.6
2012-01-30 02:01:00,0.0,1.9253,0.0009,402.55,0.28,116.9,32.6,138.13,28.76,24.61,36.33,0.04,-272.74,-272.74,-55,554,-941,23.9,3.2,-23.3,23.9,3.3,-22.9,5.73,2.41,-25.6,26.6
2012-01-30 02:02:00,0.0,1.9254,0.0009,402.47,0.24,118.9,33.9,138.13,28.75,24.61,36.33,0.04,-272.73,-272.74,-55,554,-941,23.9,3.2,-23.2,23.9,3.3,-22.9,5.73,2.40,-25.6,26.6
2012-01-30 02:03:00,0.0,1.9252,0.0010,402.47,0.20,113.2,30.2,138.13,28.75,24.61,36.32,0.04,-272.74,-272.74,-55,554,-941,23.9,3.2,-23.1,23.9,3.3,-22.8,5.73,2.40,-25.6,26.5
2012-01-30 02:04:00,0.0,1.9255,0.0009,402.37,0.20,102.3,31.6,138.13,28.74,24.60,36.33,0.04,-272.74,-272.74,-55,554,-941,23.9,3.2,-23.1,23.9,3.3,-22.8,5.73,2.39,-25.6,26.6
2012-01-30 02:05:00,0.0,1.9254,0.0008,402.48,0.22,117.8,37.4,138.14,28.73,24.61,36.32,0.04,-272.74,-272.74,-55,554,-942,23.9,3.2,-23.1,23.8,3.3,-22.8,5.73,2.39,-25.6,26.6
2012-01-30 02:06:00,0.0,1.9253,0.0008,402.50,0.24,102.1,34.7,138.13,28.72,24.61,36.32,0.04,-272.74,-272.74,-55,554,-942,23.9,3.2,-23.1,23.8,3.3,-22.8,5.73,2.38,-25.6,26.6
2012-01-30 02:07:00,0.0,1.9254,0.0009,402.51,0.25,109.2,35.9,138.13,28.71,24.61,36.32,0.04,-272.74,-272.74,-55,554,-941,23.8,3.2,-23.1,23.8,3.3,-22.7,5.73,2.37,-25.6,26.6
2012-01-30 02:08:00,0.0,1.9254,0.0010,402.39,0.26,112.2,29.8,138.14,28.70,24.61,36.33,0.04,-272.74,-272.74,-55,554,-941,23.8,3.3,-23.0,23.8,3.3,-22.8,5.73,2.37,-25.6,26.5
2012-01-30 02:09:00,0.0,1.9251,0.0008,402.45,0.30,109.1,30.2,138.14,28.69,24.61,36.32,0.04,-272.74,-272.74,-55,554,-941,23.8,3.3,-23.0,23.8,3.3,-22.7,5.73,2.41,-25.6,26.8
2012-01-30 02:10:00,0.0,1.9259,0.0010,402.50,0.21,113.1,39.4,138.13,28.69,24.61,36.33,0.04,-272.73,-272.74,-55,554,-941,23.8,3.2,-23.0,23.8,3.4,-22.7,5.73,2.44,-25.6,27.3
2012-01-30 02:11:00,0.0,1.9255,0.0010,402.62,0.23,134.5,31.0,138.12,28.70,24.61,36.33,0.04,-272.74,-272.74,-55,554,-941,23.8,3.2,-23.0,23.8,3.4,-22.6,5.73,2.35,-25.4,27.7
2012-01-30 02:12:00,0.0,1.9253,0.0009,402.67,0.25,160.3,31.6,138.11,28.71,24.61,36.33,0.04,-272.73,-272.74,-55,554,-941,23.9,3.2,-23.0,23.9,3.4,-22.7,5.73,2.30,-25.3,27.9
2012-01-30 02:13:00,0.0,1.9252,0.0008,402.64,0.26,159.9,35.0,138.10,28.73,24.61,36.33,0.04,-272.74,-272.74,-55,553,-941,23.9,3.2,-23.1,23.9,3.3,-22.7,5.73,2.49,-25.3,28.1
2012-01-30 02:14:00,0.0,1.9252,0.0007,402.60,0.22,184.1,29.5,138.10,28.75,24.61,36.33,0.04,-272.74,-272.74,-54,554,-941,24.0,3.2,-23.0,24.0,3.4,-22.6,5.73,2.40,-25.1,28.3
2012-01-30 02:15:00,0.0,1.9263,0.0010,402.70,0.20,187.6,36.3,138.09,28.78,24.60,36.33,0.04,-272.74,-272.74,-55,554,-941,24.0,3.2,-22.9,24.0,3.4,-22.6,5.73,2.31,-25.0,28.4
2012-01-30 02:16:00,0.0,1.9265,0.0009,402.69,0.23,195.2,27.0,138.09,28.81,24.61,36.33,0.04,-272.74,-272.74,-54,554,-941,24.0,3.2,-22.9,24.0,3.4,-22.5,5.73,2.52,-24.9,28.6